IQ1ZW Weather Reports


time (UTC)temp
C
wind
direction
speed
KPH
gust
KPH
rain 1hr
cm
rain 24hr
cm
rain mn
cm
humidity
%
barometer
mb
20260507125236 18 171 8.0 22.5 0.00 0.00 0.00 79 1009.0
20260507124734 18 170 3.2 14.5 0.00 0.00 0.00 82 1009.0
20260507124241 17 143 4.8 30.6 0.00 0.00 0.00 82 1008.9
20260507123734 17 202 19.3 22.5 0.00 0.00 0.00 82 1008.9
20260507123234 17 205 11.3 20.9 0.00 0.00 0.00 82 1008.9
20260507122737 17 74 6.4 20.9 0.00 0.00 0.00 82 1008.9
20260507122238 17 182 12.9 25.7 0.00 0.00 0.00 81 1008.8
20260507121737 17 149 9.7 27.4 0.00 0.00 0.00 81 1008.7
20260507121234 17 157 14.5 20.9 0.00 0.00 0.00 82 1008.8
20260507120734 17 146 9.7 25.7 0.00 0.00 0.00 82 1008.8
20260507120234 17 192 12.9 24.1 0.00 0.00 0.00 82 1008.9
20260507115734 17 177 16.1 29.0 0.00 0.00 0.00 81 1008.8
20260507115234 17 184 11.3 27.4 0.00 0.00 0.00 80 1008.8
20260507114734 17 150 17.7 27.4 0.00 0.00 0.00 81 1008.8
20260507114241 17 136 11.3 25.7 0.00 0.00 0.00 81 1008.9
20260507113737 18 160 16.1 22.5 0.00 0.00 0.00 81 1009.0
20260507113234 17 187 20.9 27.4 0.00 0.00 0.00 80 1009.1
20260507112734 17 205 8.0 17.7 0.00 0.00 0.00 81 1009.1
20260507112234 17 182 4.8 24.1 0.00 0.00 0.00 81 1009.1
20260507111737 16 189 16.1 25.7 0.00 0.00 0.00 81 1009.2
20260507111234 17 210 9.7 24.1 0.00 0.00 0.00 81 1009.2
20260507110740 17 182 20.9 24.1 0.00 0.00 0.00 81 1009.2
20260507110234 17 149 11.3 25.7 0.00 0.00 0.00 82 1009.2
20260507105734 17 189 8.0 20.9 0.00 0.00 0.00 83 1009.0
20260507105234 17 194 16.1 25.7 0.00 0.00 0.00 82 1008.9
20260507104734 17 210 16.1 27.4 0.00 0.00 0.00 83 1008.9
20260507104237 17 217 6.4 22.5 0.00 0.00 0.00 82 1009.0
20260507103743 17 171 9.7 22.5 0.00 0.00 0.00 82 1009.0
20260507103234 17 78 6.4 22.5 0.00 0.00 0.00 84 1008.9
20260507102734 17 161 12.9 27.4 0.00 0.00 0.00 84 1009.0
20260507102234 16 153 11.3 30.6 0.00 0.00 0.00 84 1009.0
20260507101740 16 142 9.7 33.8 0.00 0.00 0.00 86 1008.9
20260507101234 16 163 16.1 29.0 0.00 0.00 0.00 86 1008.9
20260507100734 16 168 9.7 25.7 0.00 0.00 0.00 89 1009.0
20260507100234 16 172 9.7 25.7 0.00 0.00 0.00 86 1009.1
20260507095734 16 191 9.7 24.1 0.00 0.00 0.00 85 1009.0
20260507095234 16 104 9.7 22.5 0.00 0.00 0.00 84 1009.0
20260507094734 16 202 16.1 25.7 0.00 0.00 0.00 83 1008.9
20260507094234 17 156 16.1 25.7 0.00 0.00 0.00 81 1009.0
20260507093740 17 168 14.5 30.6 0.00 0.00 0.00 82 1008.9
20260507093237 17 97 12.9 25.7 0.00 0.00 0.00 82 1008.9
20260507092734 17 198 16.1 29.0 0.00 0.00 0.00 82 1008.9
20260507092235 17 192 16.1 29.0 0.00 0.00 0.00 81 1008.8
20260507091734 17 154 14.5 25.7 0.00 0.00 0.00 82 1008.8
20260507091237 17 201 16.1 32.2 0.00 0.00 0.00 82 1008.8
20260507090734 17 136 17.7 27.4 0.00 0.00 0.00 81 1008.8
20260507090237 17 199 12.9 29.0 0.00 0.00 0.00 82 1008.8
20260507085735 16 192 11.3 29.0 0.00 0.00 0.00 82 1008.8
20260507085241 17 126 20.9 29.0 0.00 0.00 0.00 82 1008.7
20260507084737 17 168 11.3 32.2 0.00 0.00 0.00 81 1008.7
20260507084241 16 84 4.8 32.2 0.00 0.00 0.00 83 1008.6
20260507083738 16 153 20.9 32.2 0.00 0.00 0.00 82 1008.4
20260507083235 16 164 19.3 24.1 0.00 0.00 0.00 83 1008.4
20260507082738 16 188 4.8 29.0 0.00 0.00 0.00 84 1008.5
20260507082238 16 150 16.1 27.4 0.00 0.00 0.00 84 1008.5
20260507081735 16 163 11.3 30.6 0.00 0.00 0.00 84 1008.4
20260507081235 16 146 20.9 29.0 0.00 0.00 0.00 82 1008.2
20260507080735 16 140 9.7 27.4 0.00 0.00 0.00 81 1008.1
20260507080238 16 167 8.0 27.4 0.00 0.00 0.00 82 1008.3
20260507075739 16 165 16.1 27.4 0.00 0.00 0.00 82 1008.3
20260507075245 16 142 11.3 27.4 0.00 0.00 0.00 82 1008.1
20260507074735 16 213 14.5 24.1 0.00 0.00 0.00 81 1008.0
20260507074238 16 130 12.9 25.7 0.00 0.00 0.00 80 1008.0
20260507073735 16 130 6.4 22.5 0.00 0.00 0.00 78 1007.8
20260507073238 16 157 8.0 25.7 0.00 0.00 0.00 79 1007.9
20260507072741 16 118 3.2 20.9 0.00 0.00 0.00 79 1008.0
20260507072244 16 215 9.7 19.3 0.00 0.00 0.00 79 1007.9
20260507071735 16 140 3.2 16.1 0.00 0.00 0.00 79 1007.9
20260507071244 16 87 6.4 12.9 0.00 0.00 0.00 79 1008.0
20260507070735 16 191 8.0 20.9 0.00 0.00 0.00 79 1008.0
20260507070241 16 15 6.4 19.3 0.00 0.00 0.00 78 1007.8
20260507065742 16 189 3.2 12.9 0.00 0.03 0.00 78 1007.8
20260507065238 16 63 1.6 8.0 0.00 0.08 0.00 80 1007.8
20260507064739 16 331 1.6 4.8 0.00 0.08 0.00 81 1007.7
20260507064239 16 181 3.2 8.0 0.00 0.08 0.00 80 1007.8
20260507063735 16 150 1.6 9.7 0.00 0.08 0.00 80 1007.8
20260507063236 16 158 3.2 12.9 0.00 0.08 0.00 80 1007.8
20260507062735 16 125 4.8 12.9 0.00 0.10 0.00 80 1007.8
20260507062235 16 157 3.2 9.7 0.00 0.10 0.00 82 1007.7
20260507061738 16 205 0.0 8.0 0.00 0.10 0.00 82 1007.7
20260507061236 16 338 1.6 4.8 0.00 0.10 0.00 82 1007.7
20260507060738 16 11 0.0 16.1 0.00 0.10 0.00 83 1007.6
20260507060238 15 133 14.5 16.1 0.00 0.10 0.00 83 1007.6
20260507055736 15 161 6.4 6.4 0.00 0.10 0.00 84 1007.6
20260507055240 15 237 1.6 8.0 0.00 0.10 0.00 85 1007.6
20260507054735 15 171 1.6 9.7 0.00 0.10 0.00 85 1007.7
20260507054238 15 94 4.8 11.3 0.00 0.10 0.00 84 1007.7
20260507053735 15 126 1.6 6.4 0.00 0.10 0.00 85 1007.6
20260507053241 15 132 0.0 1.6 0.00 0.10 0.00 85 1007.6
20260507052735 15 132 1.6 4.8 0.00 0.10 0.00 85 1007.6
20260507052235 15 123 0.0 11.3 0.00 0.10 0.00 85 1007.5
20260507051735 15 180 0.0 6.4 0.00 0.10 0.00 85 1007.5
20260507051244 15 126 0.0 9.7 0.00 0.10 0.00 85 1007.4
20260507050735 15 142 1.6 11.3 0.00 0.10 0.00 85 1007.3
20260507050241 14 143 6.4 16.1 0.00 0.10 0.00 85 1007.1
20260507045736 14 146 1.6 12.9 0.00 0.10 0.00 86 1007.1
20260507045236 15 158 3.2 8.0 0.00 0.13 0.00 85 1007.2
20260507044736 15 135 1.6 11.3 0.00 0.13 0.00 86 1007.0
20260507044238 15 129 6.4 20.9 0.00 0.13 0.00 86 1007.1
20260507043738 15 184 0.0 9.7 0.00 0.13 0.00 86 1007.0
20260507043242 15 184 6.4 14.5 0.00 0.13 0.00 86 1007.0
20260507042735 15 156 9.7 11.3 0.00 0.13 0.00 86 1007.0
20260507042235 15 123 0.0 11.3 0.00 0.13 0.00 86 1007.0
20260507041738 15 146 8.0 9.7 0.00 0.13 0.00 86 1006.9
20260507041241 15 144 1.6 12.9 0.00 0.15 0.00 86 1006.8
20260507040736 15 135 4.8 14.5 0.00 0.18 0.00 86 1006.8
20260507040238 15 133 3.2 14.5 0.00 0.18 0.00 86 1006.9
20260507035735 15 133 11.3 14.5 0.00 0.20 0.00 86 1006.8
20260507035238 15 147 1.6 17.7 0.00 0.23 0.00 86 1006.9
20260507034742 15 164 12.9 16.1 0.00 0.23 0.00 86 1006.9
20260507034236 15 137 11.3 12.9 0.00 0.23 0.00 86 1006.9
20260507033738 15 146 8.0 14.5 0.00 0.23 0.00 86 1006.9
20260507033235 15 129 9.7 14.5 0.00 0.23 0.00 86 1006.9
20260507032738 15 116 8.0 9.7 0.00 0.23 0.00 86 1006.8
20260507032238 15 142 0.0 16.1 0.00 0.23 0.00 86 1006.8
20260507031735 15 182 3.2 17.7 0.00 0.23 0.00 86 1006.9
20260507031235 15 213 3.2 12.9 0.00 0.23 0.00 86 1006.9
20260507030735 15 161 1.6 17.7 0.00 0.23 0.00 86 1006.9
20260507030236 15 165 0.0 12.9 0.00 0.23 0.00 86 1006.9
20260507025735 15 136 3.2 17.7 0.00 0.23 0.00 86 1006.9
20260507025239 15 137 8.0 12.9 0.00 0.23 0.00 86 1006.8
20260507024735 15 157 4.8 24.1 0.00 0.23 0.00 85 1006.8
20260507024241 15 142 1.6 24.1 0.00 0.23 0.00 85 1006.8
20260507023738 15 151 9.7 19.3 0.00 0.23 0.00 85 1006.8
20260507023241 15 168 3.2 16.1 0.00 0.25 0.00 85 1006.8
20260507022736 15 163 4.8 17.7 0.00 0.25 0.00 85 1006.8
20260507022241 15 244 12.9 17.7 0.00 0.25 0.00 85 1006.8
20260507021738 15 164 0.0 12.9 0.00 0.28 0.00 85 1006.9
20260507021239 15 206 11.3 17.7 0.00 0.30 0.00 85 1006.8
20260507020735 15 143 16.1 16.1 0.00 0.33 0.00 85 1006.8
20260507020232 15 182 0.0 12.9 0.00 0.36 0.00 85 1006.8
20260507015732 15 142 1.6 9.7 0.00 0.36 0.00 85 1006.8
20260507015238 15 165 9.7 14.5 0.00 0.43 0.00 85 1006.7
20260507014732 15 167 1.6 12.9 0.00 0.46 0.00 85 1006.7
20260507014235 15 154 4.8 14.5 0.00 0.56 0.00 85 1006.6
20260507013732 15 156 4.8 16.1 0.00 0.61 0.00 85 1006.7
20260507013232 15 130 8.0 17.7 0.00 0.66 0.00 85 1006.8
20260507012732 15 194 8.0 14.5 0.00 0.71 0.00 85 1006.8
20260507012233 15 147 4.8 14.5 0.00 0.74 0.00 85 1006.8
20260507011735 15 140 3.2 19.3 0.00 0.81 0.00 85 1006.9
20260507011232 15 125 9.7 17.7 0.00 0.97 0.00 84 1006.9
20260507010735 15 167 11.3 19.3 0.00 0.99 0.00 84 1006.9
20260507010232 15 133 11.3 17.7 0.00 0.99 0.00 84 1006.9
20260507005732 15 85 14.5 17.7 0.00 0.99 0.00 85 1007.0
20260507005232 15 182 12.9 19.3 0.00 1.02 0.00 84 1007.0
20260507004732 15 163 12.9 19.3 0.00 1.02 0.00 84 1007.0
20260507004238 15 150 16.1 17.7 0.00 1.02 0.00 85 1007.1
20260507003735 15 202 6.4 17.7 0.00 1.02 0.00 85 1006.9
20260507003232 15 146 16.1 19.3 0.00 1.02 0.00 85 1006.9
20260507002732 15 175 9.7 25.7 0.00 1.02 0.00 85 1006.9
20260507002235 15 174 6.4 20.9 0.00 1.02 0.00 84 1006.9
20260507001732 15 174 11.3 20.9 0.00 1.02 0.00 84 1006.9
20260507001232 15 192 8.0 24.1 0.00 1.04 0.00 84 1006.8
20260507000735 15 188 11.3 27.4 0.00 1.07 0.00 84 1006.8
20260507000234 15 101 6.4 22.5 0.00 1.07 0.00 84 1006.8
20260506235735 15 170 17.7 19.3 0.00 1.07 0.00 84 1006.9
20260506235238 15 188 12.9 24.1 0.00 1.07 0.00 84 1007.0
20260506234735 15 170 8.0 20.9 0.00 1.07 0.00 83 1007.0
20260506234232 15 212 17.7 22.5 0.00 1.07 0.00 83 1007.0
20260506233738 15 171 9.7 24.1 0.00 1.07 0.00 83 1007.0
20260506233235 15 170 16.1 25.7 0.00 1.07 0.00 82 1007.0
20260506232735 15 163 14.5 22.5 0.00 1.07 0.00 82 1007.1
20260506232235 15 191 12.9 24.1 0.00 1.07 0.00 82 1007.0
20260506231739 15 163 12.9 20.9 0.00 1.07 0.00 82 1007.0
20260506231232 15 164 14.5 22.5 0.00 1.07 0.00 81 1007.1
20260506230736 15 149 9.7 24.1 0.00 1.07 0.00 81 1007.0
20260506230232 15 156 12.9 17.7 0.00 1.07 0.00 82 1007.1
20260506225732 15 158 4.8 19.3 0.00 1.07 0.00 81 1007.0
20260506225238 15 196 8.0 19.3 0.00 1.07 0.00 82 1007.1
20260506224732 15 164 6.4 20.9 0.00 1.07 0.00 82 1007.1
20260506224232 15 195 4.8 22.5 0.00 1.09 0.00 81 1007.1
20260506223735 15 199 11.3 22.5 0.00 1.09 0.00 82 1007.0
20260506223232 15 182 14.5 19.3 0.00 1.09 0.00 82 1007.0
20260506222735 15 154 16.1 19.3 0.00 1.09 0.00 82 1007.0
20260506222232 15 144 11.3 20.9 0.00 1.09 0.00 82 1007.0
20260506221735 15 184 24.1 24.1 0.00 1.14 0.00 82 1007.1
20260506221235 15 142 11.3 17.7 0.00 1.22 0.00 83 1007.1
20260506220735 15 180 4.8 14.5 0.00 1.24 0.00 82 1007.1
20260506220239 15 188 9.7 16.1 0.00 1.24 0.00 83 1007.1
20260506215732 15 192 1.6 20.9 0.00 1.24 0.00 83 1007.0
20260506215235 15 196 9.7 22.5 0.00 1.24 0.00 83 1007.1
20260506214738 15 133 3.2 22.5 0.00 1.24 0.00 83 1007.0
20260506214241 15 123 4.8 27.4 0.00 1.24 0.00 82 1007.0
20260506213732 15 161 9.7 25.7 0.00 1.24 0.00 82 1007.0
20260506213236 15 194 19.3 24.1 0.00 1.24 0.00 82 1007.0
20260506212735 15 196 11.3 20.9 0.00 1.24 0.00 82 1007.1
20260506212232 15 185 17.7 17.7 0.00 1.24 0.00 83 1007.1
20260506211738 15 168 6.4 24.1 0.00 1.24 0.00 83 1007.1
20260506211241 15 165 11.3 24.1 0.00 1.24 0.00 82 1007.0
20260506210735 15 146 8.0 24.1 0.00 1.24 0.00 83 1007.1
20260506210238 15 163 17.7 19.3 0.00 1.24 0.00 83 1007.0
20260506205738 15 177 11.3 20.9 0.00 1.24 0.00 83 1007.1
20260506205232 15 160 9.7 27.4 0.00 1.24 0.00 83 1007.1
20260506204733 15 241 4.8 22.5 0.00 1.24 0.00 84 1007.0
20260506204232 15 234 8.0 16.1 0.00 1.24 0.00 84 1007.0
20260506203735 15 180 9.7 24.1 0.00 1.24 0.00 83 1006.8
20260506203239 15 188 19.3 20.9 0.00 1.24 0.00 83 1006.8
20260506202733 15 150 12.9 20.9 0.00 1.24 0.00 83 1006.7
20260506202232 15 210 9.7 22.5 0.00 1.24 0.00 83 1006.7
20260506201733 15 184 6.4 22.5 0.00 1.24 0.00 83 1006.8
20260506201232 15 309 6.4 16.1 0.00 1.24 0.00 83 1006.7
20260506200733 15 150 9.7 20.9 0.00 1.24 0.00 83 1006.6
20260506200232 15 149 14.5 17.7 0.00 1.24 0.00 83 1006.6
20260506195738 15 165 16.1 19.3 0.00 1.24 0.00 83 1006.4
20260506195233 15 153 9.7 22.5 0.00 1.24 0.00 83 1006.4
20260506194733 15 122 6.4 17.7 0.00 1.24 0.00 83 1006.4
20260506194232 15 143 8.0 17.7 0.00 1.24 0.00 83 1006.3
20260506193736 15 175 11.3 25.7 0.00 1.24 0.00 83 1006.3
20260506193233 15 165 17.7 25.7 0.00 1.24 0.00 83 1006.3
20260506192733 15 182 8.0 19.3 0.00 1.24 0.00 83 1006.2
20260506192233 15 164 12.9 20.9 0.00 1.24 0.00 83 1006.1
20260506191733 15 180 8.0 22.5 0.00 1.24 0.00 83 1006.1
20260506191233 15 182 11.3 20.9 0.00 1.24 0.00 84 1006.0
20260506190736 15 180 6.4 12.9 0.00 1.24 0.00 85 1006.0
20260506190239 15 188 9.7 12.9 0.00 1.24 0.00 85 1005.8
20260506185733 15 167 11.3 27.4 0.00 1.24 0.00 85 1005.8
20260506185233 15 140 11.3 17.7 0.00 1.24 0.00 85 1005.7
20260506184736 15 174 16.1 19.3 0.00 1.24 0.00 86 1005.6
20260506184233 15 164 11.3 22.5 0.00 1.24 0.00 86 1005.7
20260506183733 15 144 9.7 27.4 0.00 1.24 0.00 86 1005.6
20260506183234 15 167 14.5 24.1 0.00 1.24 0.00 86 1005.5
20260506182739 15 182 3.2 24.1 0.00 1.24 0.00 87 1005.4
20260506182233 15 206 9.7 20.9 0.00 1.24 0.00 87 1005.3
20260506181733 15 142 9.7 20.9 0.00 1.24 0.00 87 1005.3
20260506181236 15 208 17.7 20.9 0.00 1.24 0.00 87 1005.2
20260506180733 15 118 12.9 19.3 0.00 1.24 0.00 87 1005.0
20260506180233 15 97 8.0 19.3 0.00 1.24 0.00 87 1004.9
20260506175736 15 187 14.5 17.7 0.00 1.24 0.00 87 1004.9
20260506175237 15 157 12.9 19.3 0.00 1.24 0.00 87 1004.9
20260506174733 15 168 6.4 29.0 0.00 1.24 0.00 87 1004.9
20260506174233 15 135 20.9 20.9 0.00 1.24 0.00 87 1004.8
20260506173733 15 146 12.9 25.7 0.00 1.24 0.00 86 1004.8
20260506173233 15 199 17.7 25.7 0.00 1.24 0.00 87 1004.9
20260506172733 15 163 8.0 20.9 0.00 1.24 0.00 86 1004.8
20260506172236 15 143 16.1 27.4 0.00 1.24 0.00 86 1004.8
20260506171739 15 154 20.9 25.7 0.00 1.24 0.00 85 1004.8
20260506171233 15 191 14.5 29.0 0.00 1.24 0.00 85 1004.7
20260506170739 16 209 19.3 32.2 0.00 1.24 0.00 84 1004.7
20260506170240 16 139 14.5 27.4 0.00 1.24 0.00 84 1004.7
20260506165733 16 189 14.5 29.0 0.00 1.24 0.00 84 1004.6
20260506165236 16 182 22.5 33.8 0.00 1.24 0.00 84 1004.7
20260506164734 16 185 24.1 30.6 0.00 1.24 0.00 84 1004.8
20260506164242 16 196 25.7 30.6 0.00 1.24 0.00 84 1004.9
20260506163733 16 212 20.9 29.0 0.00 1.24 0.00 84 1004.8
20260506163233 16 165 17.7 29.0 0.00 1.24 0.00 84 1004.7
20260506162734 16 130 11.3 30.6 0.00 1.24 0.00 85 1004.8
20260506162233 16 164 9.7 30.6 0.00 1.24 0.00 84 1004.7
20260506161733 16 198 19.3 29.0 0.00 1.24 0.00 84 1004.7
20260506161237 16 202 11.3 24.1 0.00 1.24 0.00 84 1004.7
20260506160736 16 187 11.3 25.7 0.00 1.24 0.00 84 1004.7
20260506160236 16 167 8.0 27.4 0.00 1.24 0.00 86 1004.7
20260506155733 16 99 9.7 27.4 0.00 1.24 0.00 86 1004.6
20260506155233 16 213 14.5 32.2 0.00 1.24 0.00 85 1004.6
20260506154733 16 208 8.0 27.4 0.00 1.24 0.00 85 1004.6
20260506154236 16 149 12.9 24.1 0.00 1.24 0.00 85 1004.7
20260506153733 16 154 9.7 25.7 0.00 1.24 0.00 85 1004.7
20260506153233 16 164 6.4 25.7 0.00 1.24 0.00 86 1004.6
20260506152733 16 164 16.1 24.1 0.00 1.24 0.00 85 1004.5
20260506152233 16 164 16.1 29.0 0.00 1.24 0.00 85 1004.6
20260506151739 16 237 6.4 29.0 0.00 1.24 0.00 85 1004.6
20260506151233 16 208 16.1 25.7 0.00 1.24 0.00 85 1004.6
20260506150733 16 154 9.7 214.0 0.00 1.24 0.00 85 1004.6
20260506150239 16 220 6.4 25.7 0.00 1.24 0.00 85 1004.5
20260506145733 16 196 11.3 25.7 0.00 1.24 0.00 83 1004.6
20260506145236 16 203 9.7 29.0 0.00 1.24 0.00 85 1004.5
20260506144736 16 210 20.9 25.7 0.00 1.24 0.00 87 1004.5
20260506144233 16 220 16.1 27.4 0.00 1.24 0.00 86 1004.6
20260506143739 16 201 22.5 29.0 0.00 1.24 0.00 85 1004.6
20260506143236 16 163 11.3 24.1 0.00 1.24 0.00 86 1004.6
20260506142733 16 150 17.7 25.7 0.00 1.24 0.00 85 1004.5
20260506142236 16 163 20.9 30.6 0.00 1.24 0.00 83 1004.5
20260506141733 16 163 12.9 25.7 0.00 1.24 0.00 84 1004.6
20260506141237 17 139 11.3 19.3 0.00 1.24 0.00 86 1004.6
20260506140733 16 198 24.1 29.0 0.00 1.24 0.00 86 1004.7
20260506140233 16 163 8.0 25.7 0.00 1.24 0.00 84 1004.7
20260506135736 17 199 14.5 25.7 0.00 1.24 0.00 83 1004.8
20260506135233 17 172 12.9 25.7 0.00 1.24 0.00 82 1004.8
20260506134737 17 144 6.4 22.5 0.00 1.24 0.00 84 1004.8
20260506134237 17 198 14.5 22.5 0.00 1.24 0.00 82 1004.8
20260506133736 17 160 9.7 25.7 0.00 1.24 0.00 83 1004.8
20260506133236 17 167 9.7 29.0 0.00 1.24 0.00 83 1004.8
20260506132740 16 187 12.9 24.1 0.00 1.24 0.00 82 1004.9
20260506132233 17 195 8.0 27.4 0.00 1.24 0.00 85 1004.8
20260506131736 17 208 14.5 22.5 0.00 1.24 0.00 84 1004.9
20260506131236 17 250 3.2 22.5 0.00 1.24 0.00 86 1004.8
20260506130739 17 203 11.3 20.9 0.00 1.24 0.00 86 1004.9
20260506130233 16 208 9.7 20.9 0.00 1.24 0.00 88 1004.8
20260506125733 17 202 22.5 25.7 0.00 1.24 0.00 86 1004.9